TimeCST,TemperatureF,Dew PointF,Humidity,Sea Level PressureIn,VisibilityMPH,Wind Direction,Wind SpeedMPH,Gust SpeedMPH,PrecipitationIn,Events,Conditions,WindDirDegrees,DateUTC
12:51 AM,34.0,19.0,54,30.39,10.0,NW,5.8,-,N/A,,Clear,320,2013-03-06 06:51:00
1:51 AM,36.0,19.0,50,30.39,10.0,NNW,8.1,-,N/A,,Clear,330,2013-03-06 07:51:00
2:51 AM,30.0,19.0,64,30.38,10.0,Calm,Calm,-,N/A,,Clear,0,2013-03-06 08:51:00
3:51 AM,32.0,19.9,61,30.38,10.0,NNW,4.6,-,N/A,,Clear,340,2013-03-06 09:51:00
4:51 AM,30.9,19.9,64,30.40,10.0,WNW,4.6,-,N/A,,Clear,300,2013-03-06 10:51:00
5:51 AM,26.1,19.9,78,30.42,10.0,West,3.5,-,N/A,,Clear,260,2013-03-06 11:51:00
6:51 AM,30.0,19.9,66,30.43,10.0,North,8.1,-,N/A,,Clear,350,2013-03-06 12:51:00
7:51 AM,39.0,21.9,50,30.46,10.0,NW,4.6,-,N/A,,Clear,320,2013-03-06 13:51:00
8:51 AM,43.0,23.0,45,30.48,10.0,NNE,9.2,-,N/A,,Clear,30,2013-03-06 14:51:00
9:51 AM,46.9,21.0,36,30.46,10.0,NE,11.5,17.3,N/A,,Clear,50,2013-03-06 15:51:00
10:51 AM,51.1,19.9,29,30.45,10.0,NNE,10.4,-,0.00,,Clear,20,2013-03-06 16:51:00
11:51 AM,54.0,19.0,25,30.44,10.0,Calm,Calm,-,N/A,,Clear,0,2013-03-06 17:51:00
12:51 PM,57.0,19.0,23,30.39,10.0,Variable,3.5,-,N/A,,Clear,0,2013-03-06 18:51:00
1:51 PM,60.1,18.0,20,30.34,10.0,Calm,Calm,-,N/A,,Clear,0,2013-03-06 19:51:00
2:51 PM,61.0,18.0,19,30.29,10.0,Variable,3.5,-,N/A,,Clear,0,2013-03-06 20:51:00
3:51 PM,61.0,14.0,16,30.28,10.0,Calm,Calm,-,N/A,,Clear,0,2013-03-06 21:51:00
4:51 PM,61.0,16.0,17,30.24,10.0,East,8.1,-,N/A,,Clear,90,2013-03-06 22:51:00
5:51 PM,59.0,17.1,20,30.24,10.0,East,4.6,-,N/A,,Clear,90,2013-03-06 23:51:00
6:51 PM,55.0,19.9,25,30.25,10.0,East,4.6,-,N/A,,Clear,100,2013-03-07 00:51:00
7:51 PM,48.0,21.0,34,30.25,10.0,ESE,4.6,-,N/A,,Clear,120,2013-03-07 01:51:00
8:51 PM,44.1,28.9,55,30.25,10.0,Calm,Calm,-,N/A,,Clear,0,2013-03-07 02:51:00
9:51 PM,45.0,26.1,48,30.24,10.0,ESE,3.5,-,N/A,,Clear,120,2013-03-07 03:51:00
10:51 PM,43.0,26.1,51,30.24,10.0,SE,5.8,-,N/A,,Clear,140,2013-03-07 04:51:00
11:51 PM,44.1,28.0,53,30.21,10.0,SSE,5.8,-,N/A,,Clear,150,2013-03-07 05:51:00